Lid_Strength_Index
7 10 11 10 9 9 10 11 11 10 8 10 10 11 10 8 8 8 7 7 7 6 5 4 3 3 2 2 2 2 1 0 0 0 1 1 1 0 0 -0 -1 -1 -1 -1
10 13 9 8 9 9 10 12 12 10 9 10 10 12 10 8 9 8 8 7 7 6 5 5 4 3 3 3 3 2 2 1 0 0 0 0 0 0 -0 -1 -0 -0 -1 -1
13 12 9 10 10 11 11 12 11 12 10 9 11 14 12 10 9 9 7 7 6 6 6 6 5 5 4 4 4 4 3 3 1 -0 0 0 -0 0 1 0 0 -0 -1 -1
10 9 9 10 11 10 13 10 10 11 13 15 11 18 14 11 10 10 8 8 7 7 7 7 7 6 6 5 4 4 4 4 2 0 0 1 2 2 1 1 0 -0 -1 -1
11 10 11 11 10 9 12 8 10 11 12 14 15 16 15 12 12 10 9 9 8 7 8 7 7 7 7 6 5 4 4 4 3 1 0 1 1 1 0 0 0 0 -0 -1
9 8 8 9 9 8 8 10 10 11 12 17 15 16 16 14 12 11 9 8 8 8 7 7 7 7 6 6 5 4 4 4 2 1 1 1 1 1 1 1 1 1 0 -0
11 10 8 8 10 9 9 12 17 18 19 18 14 15 14 11 10 10 9 8 7 7 7 7 6 6 6 6 5 6 6 6 6 5 4 3 2 1 1 1 1 1 1 1
14 16 10 8 9 11 11 11 14 19 18 17 14 16 14 10 9 9 9 8 8 7 7 6 6 7 7 7 7 6 7 8 7 6 6 6 6 5 5 5 5 5 4 4
14 15 10 9 8 8 11 14 11 15 16 17 15 13 11 10 10 10 9 9 9 7 8 7 8 8 8 8 8 8 8 8 8 8 7 7 7 7 7 6 6 5 5 5
11 15 12 10 8 9 10 9 15 14 20 20 17 16 15 13 12 11 10 10 9 9 9 7 8 9 9 9 9 9 9 9 9 9 8 8 8 8 8 7 7 7 7 6
10 12 13 11 12 12 12 13 12 12 14 18 19 16 12 11 11 11 10 9 9 9 8 8 9 9 10 10 10 10 10 10 10 9 9 9 9 9 9 9 9 9 8 8
9 11 15 13 10 9 9 11 11 15 16 14 16 16 11 10 10 10 8 8 7 8 7 7 8 9 9 10 10 10 10 10 10 10 10 10 10 10 9 9 9 9 9 8
9 13 16 15 12 10 11 10 10 11 12 15 16 16 11 10 9 8 9 7 7 8 6 7 8 9 9 9 10 11 11 11 11 10 10 11 11 10 10 10 10 9 9 8
7 11 13 15 13 11 13 12 11 11 15 15 14 14 11 10 9 8 8 7 7 7 7 7 7 8 8 9 9 10 10 11 11 11 11 11 11 10 10 10 9 9 9 9
8 14 12 11 10 11 11 11 11 13 12 14 13 12 11 9 8 8 7 6 6 7 7 6 6 7 7 8 9 10 10 11 11 11 11 11 11 10 10 9 9 9 9 9
8 14 12 14 11 11 13 11 11 11 11 11 11 11 7 7 6 7 6 6 6 5 5 5 5 6 7 8 9 10 10 10 10 10 11 11 11 10 10 10 10 9 9 8
11 12 14 16 12 13 16 13 11 11 10 10 13 10 7 7 7 6 6 5 5 5 4 5 5 6 7 8 9 9 10 10 10 11 11 12 12 11 11 10 10 9 9 8
11 12 12 15 14 19 11 7 8 10 9 8 8 8 7 7 6 5 4 5 5 5 4 4 4 5 6 7 9 9 10 10 10 11 12 12 12 12 12 11 11 10 10 9
8 11 14 16 16 13 11 9 10 10 10 7 8 7 6 6 6 6 5 4 4 4 3 3 2 3 6 8 9 10 10 11 11 12 13 13 13 13 13 13 12 12 12 11
9 9 12 14 17 19 11 8 7 7 14 6 6 7 7 6 10 7 4 4 4 3 3 6 7 8 8 9 10 10 11 12 13 13 14 14 14 14 14 13 13 12 12 12
13 13 15 15 16 13 8 7 7 14 12 7 6 6 6 7 6 4 5 6 7 7 8 9 9 10 10 11 11 11 12 13 14 15 15 16 15 15 14 14 14 13 13 11
13 15 15 14 16 18 7 8 11 8 6 6 6 6 6 5 5 5 5 7 9 10 10 11 11 13 13 12 12 13 14 15 16 16 17 17 16 15 15 15 14 14 12 12
13 10 12 12 12 7 6 6 5 5 6 5 6 5 6 6 6 7 7 9 10 10 12 12 14 15 16 15 14 15 17 17 18 18 19 18 17 16 16 16 15 14 13 13
10 9 10 11 8 7 7 6 6 5 5 5 5 6 6 6 6 9 11 12 12 12 14 15 16 17 18 18 18 18 19 20 20 20 19 18 18 18 17 16 16 15 15 14
9 8 10 10 8 8 6 6 6 6 6 7 7 6 6 6 8 10 12 13 13 14 15 15 16 18 19 19 21 21 22 22 20 20 19 19 19 19 18 17 17 17 16 15
9 9 10 11 7 7 7 6 6 7 7 6 7 7 8 8 8 11 13 14 15 16 16 17 18 20 21 21 23 24 24 23 22 20 20 21 20 20 19 19 18 17 17 16